Change the Weather History Date:

Friday, March 30, 2012

  Actual Average Record
Temperature  
Mean Temperature 50 °F -  
Max Temperature 61 °F 43 °F 75 °F (1968)
Min Temperature 39 °F 25 °F -12 °F (1969)
Degree Days  
Heating Degree Days 15    
Moisture  
Dew Point 42 °F    
Average Humidity 86    
Maximum Humidity 100    
Minimum Humidity 52    
Precipitation  
Precipitation 0.00 in - - ()
Sea Level Pressure  
Sea Level Pressure 29.79 in    
Wind  
Wind Speed 4 mph (ENE)    
Max Wind Speed 15 mph    
Max Gust Speed 23 mph    
Visibility 7 miles    
Events Fog    
Averages and records for this station are not official NWS values.
T = Trace of Precipitation, MM = Missing Value Source: NWS Daily Summary

Daily Weather History Graph

Daily Weather History Graph

Search for Another Location

Airport or City:

Trip Planner

Search our weather history database for the weather conditions in past years. The results will help you decide how hot, cold, wet, or windy it might be!

Date:

Astronomy

Mar. 30, 2012 Rise Set
Actual Time 7:04 AM CDT 7:48 PM CDT
Civil Twilight 6:34 AM CDT 8:18 PM CDT
Nautical Twilight 5:58 AM CDT 8:54 PM CDT
Astronomical Twilight 5:21 AM CDT 9:31 PM CDT
Moon 11:56 AM CDT (3/30) 2:40 AM CDT (3/30)
Length of Visible Light 13h 43m
Length of Day
12h 43m
Waxing Crescent, 49% of the Moon is Illuminated
Mar 30
Waxing Crescent
Mar 30
First Quarter
Apr 6
Full
Apr 13
Last Quarter
Apr 21
New

Hourly Weather History & Observations

Time (CDT) Temp. Windchill Dew Point Humidity Pressure Visibility Wind Dir Wind Speed Gust Speed Precip Events Conditions
12:53 AM 43.0 °F 39.5 °F 39.9 °F 89% 29.79 in 10.0 mi ENE 5.8 mph - N/A   Overcast
1:12 AM 42.8 °F 38.6 °F 39.2 °F 87% 29.76 in 8.0 mi East 6.9 mph - N/A   Overcast
1:39 AM 42.8 °F 38.6 °F 39.2 °F 87% 29.76 in 10.0 mi ESE 6.9 mph - N/A   Overcast
1:53 AM 42.1 °F 38.4 °F 39.0 °F 89% 29.79 in 10.0 mi East 5.8 mph - N/A   Mostly Cloudy
2:53 AM 43.0 °F - 39.9 °F 89% 29.79 in 10.0 mi Calm Calm - N/A   Overcast
3:53 AM 43.0 °F - 41.0 °F 93% 29.79 in 10.0 mi Calm Calm - N/A   Overcast
4:53 AM 41.0 °F - 39.9 °F 96% 29.80 in 10.0 mi Calm Calm - N/A   Overcast
5:53 AM 42.1 °F 40.2 °F 39.9 °F 92% 29.79 in 7.0 mi North 3.5 mph - N/A   Overcast
6:21 AM 41.0 °F 39.0 °F 39.2 °F 93% 29.75 in 7.0 mi NNE 3.5 mph - N/A   Partly Cloudy
6:38 AM 39.2 °F 37.0 °F 39.2 °F 100% 29.75 in 6.0 mi NE 3.5 mph - N/A   Mostly Cloudy
6:53 AM 39.0 °F 36.8 °F 37.9 °F 96% 29.79 in 5.0 mi ENE 3.5 mph - N/A   Overcast
7:02 AM 39.2 °F 37.0 °F 39.2 °F 100% 29.76 in 5.0 mi ENE 3.5 mph - N/A   Overcast
7:42 AM 42.8 °F 41.1 °F 41.0 °F 93% 29.76 in 2.5 mi ESE 3.5 mph - N/A   Overcast
7:48 AM 42.8 °F 41.1 °F 41.0 °F 93% 29.76 in 1.0 mi ESE 3.5 mph - N/A   Overcast
7:51 AM 42.8 °F 41.1 °F 41.0 °F 93% 29.76 in 0.5 mi ESE 3.5 mph - N/A Fog Fog
7:53 AM 42.1 °F 40.2 °F 41.0 °F 96% 29.80 in 0.5 mi ESE 3.5 mph - N/A Fog Fog
8:53 AM 43.0 °F - 43.0 °F 100% 29.81 in 0.2 mi Calm Calm - N/A Fog Fog
9:53 AM 45.0 °F - 44.1 °F 97% 29.82 in 0.2 mi Calm Calm - N/A Fog Fog
10:12 AM 44.6 °F - 44.6 °F 100% 29.79 in 1.0 mi Calm Calm - N/A   Mist
10:16 AM 44.6 °F - 44.6 °F 100% 29.80 in 2.0 mi Calm Calm - N/A   Overcast
10:26 AM 44.6 °F - 44.6 °F 100% 29.80 in 4.0 mi Calm Calm - N/A   Overcast
10:53 AM 45.0 °F - 44.1 °F 97% 29.83 in 6.0 mi Calm Calm - N/A   Overcast
11:00 AM 46.4 °F 45.2 °F 44.6 °F 93% 29.80 in 6.0 mi NNW 3.5 mph - N/A   Overcast
11:53 AM 48.0 °F - 44.1 °F 86% 29.83 in 7.0 mi North 4.6 mph - N/A   Overcast
12:53 PM 51.1 °F - 44.1 °F 77% 29.82 in 9.0 mi North 6.9 mph - N/A   Overcast
1:33 PM 51.8 °F - 44.6 °F 76% 29.79 in 10.0 mi NNW 5.8 mph - N/A   Partly Cloudy
1:53 PM 53.1 °F - 44.1 °F 71% 29.81 in 10.0 mi Variable 3.5 mph - N/A   Clear
2:53 PM 57.0 °F - 45.0 °F 64% 29.79 in 10.0 mi Calm Calm - N/A   Clear
3:53 PM 57.9 °F - 44.1 °F 60% 29.78 in 10.0 mi Calm Calm - N/A   Clear
4:53 PM 60.1 °F - 44.1 °F 55% 29.77 in 10.0 mi ENE 4.6 mph - N/A   Clear
5:53 PM 61.0 °F - 43.0 °F 52% 29.77 in 10.0 mi ENE 3.5 mph - N/A   Clear
6:53 PM 57.9 °F - 46.0 °F 65% 29.81 in 10.0 mi East 12.7 mph - N/A   Clear
7:53 PM 53.1 °F - 45.0 °F 74% 29.81 in 8.0 mi East 11.5 mph - N/A   Clear
8:53 PM 50.0 °F - 44.1 °F 80% 29.82 in 9.0 mi East 11.5 mph - N/A   Clear
9:53 PM 48.9 °F - 44.1 °F 83% 29.80 in 7.0 mi SE 15.0 mph 23.0 mph N/A   Clear
10:53 PM 48.0 °F - 44.1 °F 86% 29.82 in 7.0 mi SE 13.8 mph - N/A   Clear
11:53 PM 46.0 °F 40.6 °F 43.0 °F 89% 29.82 in 6.0 mi ESE 11.5 mph - N/A   Clear